ATLAS 5 CENTAUR DEB, 49356

Orbit data source: Space-Track

ATLAS 5 CENTAUR DEB, 49356 is space debris in HEO originally from a launch on Wed, 17 Oct 2018 UTC launched from the Air Force Eastern Test Range (AFETR). Debris objects in space refer to the collection of defunct objects orbiting the Earth. Examples of debris include non-operational satellites, rocket bodies, and fragments generated from explosions, collisions, or faulty payload assembly.

Loading next visibility...
Identifier
49356, 2018-079FH
Orbit
HEO
Country
Flag of USUS
Related business
Flag of USUnited Launch Alliance/Lockheed Martin (US)
Manufacturer
ULA Decatur
Mission
Spacecraft
Bus & Motor
Unknown
Mass
Unknown
Launch date (UTC)
2018-10-17 (7 years ago)
Launch vehicle
Unknown
Launch site
Air Force Eastern Test Range (AFETR)
Object type
Payload
Rocket body
Debris
Shape & HBR
Unknown shape, 1.1 m
Radar Cross Section
RCS unknown

Expand to show TLE details & history
Last TLE update: 5 days ago

TLE from 5 days ago
0 ATLAS 5 CENTAUR DEB
1 49356U 18079FH  26033.42500651 -.00000164  00000-0  00000-0 0  9991
2 49356  13.1663  55.6278 4651449 271.9237  37.2721  1.78468896 28881
Epoch: 2026-02-02T10:12Z
TLE epoch observation values (Epoch: 2026-02-02T10:12:00.562Z)
Latitude
-0.00003°
Longitude
130.11389°
Altitude
15,776.021 km
Speed
4.701 km/s
True Right ascension
03h 42m 56s
True Declination
0° 00' 00"
Sunlit
Object was in daylight at epoch
Visualization orbit readout
Latitude
Unknown
Longitude
Unknown
Altitude
Unknown
Speed
Unknown
Apparent Right ascension
Unknown
Apparent Declination
Unknown
Sunlit
N/A
Visualization observer readout
Local Sidereal Time
16:21:46
Azimuth
Unknown
Elevation
Unknown
Doppler factor
Unknown
Orbital elements
Apogee altitude
35,688.569 km
Perigee altitude
8,978.428 km
Semi-major axis
28,711.635 km
Eccentricity
0.46514
Inclination
13.1663°
RAAN
55.6278°
Arg. of periapsis
271.9237°
True anomaly
87.92431°
Mean anomaly
37.2721°
Eccentric anomaly
60.45824°
Mean motion
0.44612 °/min
Orbital period
806.95 mins
BSTAR
0
Loading maneuver chart data...
Computing Atmospheric mass density...

Documentation

Showing up to 5 results
|